Flight Track Log - Related Links

Times and Time Zones

All times are in EDT time to prevent confusion due to time zone crossing. See the N400PU flight status page for this flight to view local times or setup timezone preferences in your user account.

Time Position Orientation Groundspeed Altitude Reporting Facility
EDT Latitude Longitude Course Direction KTS MPH feet Rate Location/Type
Thu 11:33:11 AM 40.4153 -86.9800 295° West 167 192 1,800  Level Chicago Center
Thu 11:33:17 AM 40.4172 -86.9856 295° West 176 203 2,000 2,149 Climbing Chicago Center
Thu 11:34:18 AM 40.4531 -87.0153 328° Northwest 188 216 4,200 2,244 Climbing Chicago Center
Thu 11:35:20 AM 40.4942 -86.9564 47° Northeast 233 268 6,600 2,516 Climbing Chicago Center
Thu 11:36:22 AM 40.5428 -86.8575 57° Northeast 267 307 9,400 2,468 Climbing Chicago Center
Thu 11:37:24 AM 40.5881 -86.7628 58° Northeast 300 345 11,700 2,129 Climbing Chicago Center
Thu 11:38:26 AM 40.6344 -86.6628 59° Northeast 318 366 13,800 2,049 Climbing Chicago Center
Thu 11:39:27 AM 40.6839 -86.5603 58° Northeast 330 380 15,900 1,512 Climbing Chicago Center
Thu 11:40:29 AM 40.7350 -86.4536 58° Northeast 339 390 16,900 1,258 Climbing Chicago Center
Thu 11:41:31 AM 40.7867 -86.3439 58° Northeast 351 404 18,500 1,548 Climbing Chicago Center
Thu 11:42:33 AM 40.8367 -86.2397 58° Northeast 340 391 20,100 1,561 Climbing Chicago Center
Thu 11:43:34 AM 40.8961 -86.1122 58° Northeast 341 392 21,700 1,122 Climbing Chicago Center
Thu 11:44:36 AM 40.9467 -86.0053 58° Northeast 343 395 22,400 823 Climbing Chicago Center
Thu 11:45:38 AM 40.9969 -85.8961 59° Northeast 347 399 23,400 823 Climbing Chicago Center
Thu 11:46:40 AM 41.0489 -85.7828 59° Northeast 358 412 24,100 677 Climbing Chicago Center
Thu 11:47:42 AM 41.0914 -85.6628 65° Northeast 367 422 24,800 634 Climbing Chicago Center
Thu 11:48:43 AM 41.1067 -85.5269 81° East 379 436 25,400 829 Climbing Chicago Center
Thu 11:49:45 AM 41.1236 -85.3525 83° East 401 461 26,500 1,113 Climbing Chicago Center
Thu 11:50:47 AM 41.1369 -85.1950 84° East 426 490 27,700 1,210 Climbing Chicago Center
Thu 11:51:49 AM 41.1506 -85.0394 83° East 429 494 29,000 1,210 Climbing Chicago Center
Thu 11:52:51 AM 41.1642 -84.8819 83° East 432 497 30,200 1,210 Climbing Chicago Center
Thu 11:53:53 AM 41.1781 -84.7225 83° East 435 501 31,500 1,220 Climbing Chicago Center
Thu 11:54:54 AM 41.1958 -84.5639 81° East 438 504 32,700 732 Climbing Chicago Center
Thu 11:55:56 AM 41.2514 -84.3858 67° East 451 519 33,000 145 Climbing Chicago Center
Thu 11:56:58 AM 41.3303 -84.2547 51° Northeast 458 527 33,000  Level Chicago Center
Thu 11:58:00 AM 41.4108 -84.1167 52° Northeast 473 544 33,000  Level Chicago Center
Thu 11:58:59 AM 41.4972 -83.9628 53° Northeast 473 544 33,000  Level Cleveland Center
Thu 11:59:59 AM 41.5808 -83.8144 53° Northeast 492 566 33,000  Level Cleveland Center
Thu 12:01:00 PM 41.6683 -83.6633 52° Northeast 498 573 33,000  Level Cleveland Center
Thu 12:01:59 PM 41.7536 -83.5114 53° Northeast 504 580 33,000  Level Cleveland Center
Thu 12:02:59 PM 41.8389 -83.3564 54° Northeast 504 580 33,000  Level Cleveland Center
Thu 12:03:59 PM 41.9300 -83.2039 51° Northeast 510 587 33,000  Level Cleveland Center
Thu 12:05:00 PM 42.0128 -83.0453 55° Northeast 515 593 33,000 -150 Level Cleveland Center
Thu 12:05:59 PM 42.0950 -82.9031 52° Northeast 515 593 32,700 -900 Descending Cleveland Center
Thu 12:07:00 PM 42.1792 -82.7492 54° Northeast 515 593 31,200 -843 Descending Cleveland Center
Thu 12:08:00 PM 42.2656 -82.5950 53° Northeast 515 593 31,000 -100 Descending Cleveland Center
Thu 12:09:00 PM 42.3594 -82.4517 48° Northeast 515 593 31,000 -600 Level Cleveland Center
Thu 12:10:00 PM 42.4917 -82.4022 15° North 484 557 29,800 -1,008 Descending Cleveland Center
Thu 12:10:59 PM 42.6208 -82.4003 North 455 524 29,000 -400 Descending Cleveland Center
Thu 12:12:00 PM 42.7528 -82.3644 11° North 456 525 29,000  Level Cleveland Center
Thu 12:12:59 PM 42.8342 -82.2083 55° Northeast 461 531 29,000  Level Cleveland Center
Thu 12:14:00 PM 42.8722 -82.0167 75° East 464 534 29,000  Level Cleveland Center
Thu 12:14:59 PM 42.9369 -81.8394 63° Northeast 489 563 29,000  Level Cleveland Center
Thu 12:16:05 PM 43.0000 -81.6167 69° East 530 610 29,000  Level Toronto Center
Thu 12:17:05 PM 43.0667 -81.4333 63° Northeast 530 610 29,000  Level Toronto Center
Thu 12:18:05 PM 43.1333 -81.2500 63° Northeast 530 610 29,000 -950 Level Toronto Center
Thu 12:19:05 PM 43.1833 -81.0667 69° East 520 598 27,100 -1,900 Descending Toronto Center
Thu 12:20:05 PM 43.2500 -80.9167 59° Northeast 510 587 25,200 -2,150 Descending Toronto Center
Thu 12:21:05 PM 43.3333 -80.7333 58° Northeast 510 587 22,800 -2,300 Descending Toronto Center
Thu 12:22:05 PM 43.3833 -80.5667 68° East 480 552 20,600 -2,100 Descending Toronto Center
Thu 12:23:05 PM 43.4333 -80.4167 65° Northeast 460 529 18,600 -2,300 Descending Toronto Center
Thu 12:24:05 PM 43.4833 -80.2500 67° East 440 506 16,000 -2,150 Descending Toronto Center
Thu 12:25:05 PM 43.5167 -80.1167 71° East 370 426 14,300 -1,650 Descending Toronto Center
Thu 12:26:05 PM 43.5500 -80.0000 68° East 340 391 12,700 -1,550 Descending Toronto Center
Thu 12:27:05 PM 43.5833 -79.8833 68° East 330 380 11,200 -1,500 Descending Toronto Center
Thu 12:28:05 PM 43.6333 -79.8000 50° Northeast 320 368 9,700 -1,400 Descending Toronto Center
Thu 12:29:05 PM 43.7167 -79.7333 30° Northeast 290 334 8,400 -1,300 Descending Toronto Center
Thu 12:30:05 PM 43.7667 -79.6833 36° Northeast 270 311 7,100 -1,200 Descending Toronto Center
Thu 12:31:05 PM 43.8167 -79.6167 44° Northeast 250 288 6,000 -1,150 Descending Toronto Center
Thu 12:32:05 PM 43.8500 -79.5333 61° Northeast 230 265 4,800 -1,200 Descending Toronto Center
Thu 12:33:05 PM 43.8167 -79.4667 125° Southeast 230 265 3,600 -900 Descending Toronto Center
Thu 12:34:05 PM 43.7667 -79.5000 206° Southwest 200 230 3,000 -750 Descending Toronto Center
Thu 12:35:05 PM 43.7333 -79.5333 216° Southwest 180 207 2,100 -850 Descending Toronto Center
Thu 12:36:05 PM 43.7000 -79.5833 227° Southwest 160 184 1,300 -750 Descending Toronto Center
Thu 12:37:05 PM 43.6833 -79.6167 235° Southwest 130 150 600 -350 Descending Toronto Center
Thu 12:38:05 PM 43.6833 -79.6333 270° West 40 46 600  Level Toronto Center
Thu 12:39:05 PM 43.6833 -79.6333 270° West 10 12 600  Level Toronto Center

Login

Don't have an account? Register now (free) for customized features, flight alerts, and more!